Date String (YYYY-MM-DD hh:mm:ss) UTC,Instrument flags,absolute air pressure of the measurement (hPa),sample flow rate (lpm),inlet stack bypass flow (lpm),air temperature of the measurement (°C),ambient temperature measured by the external sensor (°C),aerosol sample conditioner tube jacket temperature (°C),OPC LED temperature (°C),internal box temperature (°C),relative humidity of the measurement (%),span deviation,mass concentration of particles derived from Lorenz-Mie calculation of OPC scattering (μg/m³),mass concentration of particles derived from Lorenz-Mie calculation of OPC scattering (μg/m³),mass concentration of particles derived from Lorenz-Mie calculation of OPC scattering (μg/m³)
DateTimeUTC,F1_M11,P_M11,Q1_M11,Q2_M11,T1_M11,T2_M11,T3_M11,T4_M11,T5_M11,U1_M11,ZSPAN_M11,X2_M11,X0_M11,X1_M11
2024-04-12 20:00:00,SystemResetWarning,0828.4,5.00,000.00,025.0,022.2,000.0,033.9,025.7,009.7,0000.0,0004.99,0014.60,0003.37
2024-04-12 20:01:00,SystemResetWarning,0828.4,5.00,000.00,024.9,022.6,000.0,033.7,026.1,009.6,0000.0,0004.92,0013.79,0003.36
2024-04-12 20:02:00,SystemResetWarning,0828.5,5.00,000.00,025.0,023.0,000.0,033.6,026.4,009.5,0000.0,0004.90,0013.90,0003.35
2024-04-12 20:03:00,SystemResetWarning,0828.5,5.00,000.00,025.0,023.3,000.0,033.6,026.6,009.7,0000.0,0004.89,0013.66,0003.33
2024-04-12 20:04:00,SystemResetWarning,0828.5,5.00,000.00,025.0,023.6,000.0,033.5,026.7,009.2,0000.0,0004.85,0013.89,0003.28
2024-04-12 20:05:00,SystemResetWarning,0828.4,5.00,000.00,025.1,023.9,000.0,033.5,026.9,009.2,0000.0,0004.75,0015.39,0003.19
2024-04-12 20:06:00,SystemResetWarning,0828.4,4.99,000.00,025.2,024.1,000.0,033.5,027.0,009.2,0000.0,0004.65,0015.59,0003.08
2024-04-12 20:07:00,SystemResetWarning,0828.4,4.99,000.00,025.2,024.3,000.0,033.5,027.1,009.2,0000.0,0004.51,0014.71,0002.91
2024-04-12 20:08:00,SystemResetWarning,0828.4,5.00,000.00,025.3,024.5,000.0,033.5,027.1,009.2,0000.0,0004.43,0014.31,0002.74
2024-04-12 20:09:00,SystemResetWarning,0828.4,5.00,000.00,025.4,024.6,000.0,033.5,027.2,009.0,0000.0,0004.34,0013.98,0002.62
2024-04-12 20:10:00,SystemResetWarning,0828.4,5.00,000.00,025.4,024.8,000.0,033.6,027.3,009.3,0000.0,0004.25,0013.88,0002.52
2024-04-12 20:11:00,SystemResetWarning,0828.4,5.00,000.00,025.5,024.9,000.0,033.6,027.4,010.1,0000.0,0004.23,0014.10,0002.44
2024-04-12 20:12:00,SystemResetWarning,0828.4,5.00,000.00,025.5,025.0,000.0,033.6,027.5,010.2,0000.0,0004.21,0015.07,0002.41
2024-04-12 20:13:00,SystemResetWarning,0828.4,5.00,000.00,025.6,025.1,000.0,033.7,027.5,009.7,0000.0,0004.26,0015.44,0002.42
2024-04-12 20:14:00,SystemResetWarning,0828.4,5.01,000.00,025.7,025.2,000.0,033.7,027.6,009.2,0000.0,0004.26,0016.28,0002.41
2024-04-12 20:15:00,SystemResetWarning,0828.4,4.99,000.00,025.7,025.3,000.0,033.7,027.6,009.2,0000.0,0004.21,0017.12,0002.39
2024-04-12 20:16:00,SystemResetWarning,0828.4,4.99,000.00,025.8,025.1,000.0,033.8,027.5,009.2,0000.0,0004.19,0015.73,0002.38
2024-04-12 20:17:00,SystemResetWarning,0828.4,5.00,000.00,025.5,023.2,000.0,033.9,026.5,009.7,0000.0,0004.15,0015.05,0002.36
2024-04-12 20:18:00,SystemResetWarning,0828.4,4.99,000.00,025.1,021.9,000.0,033.9,025.6,009.5,0000.0,0004.13,0015.34,0002.33
2024-04-12 20:19:00,SystemResetWarning,0828.3,5.02,000.00,024.9,022.2,000.0,033.8,025.7,009.6,0000.0,0004.08,0015.08,0002.31
2024-04-12 20:20:00,SystemResetWarning,0828.4,5.01,000.00,024.9,022.6,000.0,033.6,026.0,009.3,0000.0,0004.03,0014.55,0002.29
2024-04-12 20:21:00,SystemResetWarning,0828.3,4.99,000.00,024.9,023.0,000.0,033.5,026.3,009.1,0000.0,0003.99,0014.31,0002.27
2024-04-12 20:22:00,SystemResetWarning,0828.3,5.00,000.00,024.9,023.3,000.0,033.5,026.5,009.5,0000.0,0003.93,0014.36,0002.26
2024-04-12 20:23:00,SystemResetWarning,0828.3,5.01,000.00,025.0,023.6,000.0,033.5,026.7,009.2,0000.0,0003.91,0013.15,0002.25
2024-04-12 20:24:00,SystemResetWarning,0828.2,5.00,000.00,025.1,023.9,000.0,033.4,026.8,008.9,0000.0,0003.80,0012.60,0002.18
2024-04-12 20:25:00,SystemResetWarning,0828.3,5.00,000.00,025.1,024.1,000.0,033.4,026.9,009.3,0000.0,0003.71,0011.63,0002.12
2024-04-12 20:26:00,SystemResetWarning,0828.3,5.00,000.00,025.2,024.3,000.0,033.4,027.0,009.9,0000.0,0003.74,0010.28,0002.07
2024-04-12 20:27:00,SystemResetWarning,0828.3,5.00,000.00,025.3,024.5,000.0,033.5,027.1,009.1,0000.0,0003.73,0010.33,0002.01
2024-04-12 20:28:00,SystemResetWarning,0828.3,5.00,000.00,025.3,024.7,000.0,033.5,027.2,009.0,0000.0,0003.71,0010.60,0001.97
2024-04-12 20:29:00,SystemResetWarning,0828.2,5.00,000.00,025.4,024.8,000.0,033.5,027.3,009.0,0000.0,0003.73,0010.36,0001.96
2024-04-12 20:30:00,SystemResetWarning,0828.2,5.00,000.00,025.5,024.9,000.0,033.6,027.4,009.0,0000.0,0003.68,0011.11,0001.93
2024-04-12 20:31:00,SystemResetWarning,0828.2,5.00,000.00,025.5,025.0,000.0,033.6,027.5,009.0,0000.0,0003.64,0011.27,0001.91
2024-04-12 20:32:00,SystemResetWarning,0828.2,4.99,000.00,025.6,025.1,000.0,033.6,027.5,009.2,0000.0,0003.58,0011.20,0001.89
2024-04-12 20:33:00,SystemResetWarning,0828.2,4.99,000.00,025.7,025.2,000.0,033.7,027.6,008.9,0000.0,0003.55,0010.96,0001.86
2024-04-12 20:34:00,SystemResetWarning,0828.3,5.00,000.00,025.6,024.4,000.0,033.7,027.1,009.0,0000.0,0003.50,0011.15,0001.82
2024-04-12 20:35:00,SystemResetWarning,0828.1,5.00,000.00,025.2,022.2,000.0,033.8,025.9,008.7,0000.0,0003.53,0011.44,0001.83
2024-04-12 20:36:00,SystemResetWarning,0828.1,5.00,000.00,024.9,021.7,000.0,033.8,025.5,008.8,0000.0,0003.56,0011.48,0001.84
2024-04-12 20:37:00,SystemResetWarning,0828.1,5.01,000.00,024.7,022.1,000.0,033.6,025.6,009.0,0000.0,0003.56,0011.38,0001.85
2024-04-12 20:38:00,SystemResetWarning,0828.1,5.00,000.00,024.7,022.5,000.0,033.5,025.9,009.2,0000.0,0003.59,0011.41,0001.87
2024-04-12 20:39:00,SystemResetWarning,0828.1,5.00,000.00,024.8,022.9,000.0,033.4,026.3,009.0,0000.0,0003.58,0011.11,0001.87
2024-04-12 20:40:00,SystemResetWarning,0828.1,5.00,000.00,024.9,023.3,000.0,033.4,026.5,009.3,0000.0,0003.55,0011.37,0001.87
2024-04-12 20:41:00,SystemResetWarning,0828.2,4.99,000.00,024.9,023.6,000.0,033.3,026.7,009.5,0000.0,0003.59,0010.73,0001.89
2024-04-12 20:42:00,SystemResetWarning,0828.2,5.00,000.00,025.0,023.9,000.0,033.3,026.8,009.3,0000.0,0003.67,0010.65,0001.88
2024-04-12 20:43:00,SystemResetWarning,0828.1,5.00,000.00,025.1,024.1,000.0,033.3,026.9,008.7,0000.0,0003.74,0010.84,0001.89
2024-04-12 20:44:00,SystemResetWarning,0828.1,5.01,000.00,025.1,024.3,000.0,033.3,027.0,008.6,0000.0,0003.75,0010.59,0001.89
2024-04-12 20:45:00,SystemResetWarning,0828.1,5.01,000.00,025.2,024.5,000.0,033.4,027.1,008.9,0000.0,0003.80,0010.92,0001.90
2024-04-12 20:46:00,SystemResetWarning,0828.1,4.98,000.00,025.3,024.6,000.0,033.4,027.2,008.9,0000.0,0003.83,0011.08,0001.88
2024-04-12 20:47:00,SystemResetWarning,0828.0,5.00,000.00,025.3,024.8,000.0,033.4,027.3,008.4,0000.0,0003.81,0011.99,0001.86
2024-04-12 20:48:00,SystemResetWarning,0828.1,5.00,000.00,025.4,024.9,000.0,033.5,027.4,008.6,0000.0,0003.84,0012.71,0001.85
2024-04-12 20:49:00,SystemResetWarning,0828.0,5.00,000.00,025.5,025.0,000.0,033.5,027.4,009.4,0000.0,0003.79,0013.14,0001.84
2024-04-12 20:50:00,SystemResetWarning,0828.1,5.01,000.00,025.6,025.1,000.0,033.6,027.5,009.2,0000.0,0003.79,0013.13,0001.84
2024-04-12 20:51:00,SystemResetWarning,0828.1,5.01,000.00,025.6,025.2,000.0,033.6,027.6,008.8,0000.0,0003.75,0013.14,0001.84
2024-04-12 20:52:00,SystemResetWarning,0828.1,4.98,000.00,025.6,024.6,000.0,033.7,027.2,009.4,0000.0,0003.71,0013.10,0001.81
2024-04-12 20:53:00,SystemResetWarning,0828.0,5.00,000.00,025.3,022.5,000.0,033.7,026.0,008.5,0000.0,0003.67,0013.19,0001.81
2024-04-12 20:54:00,SystemResetWarning,0827.9,5.01,000.00,024.9,021.7,000.0,033.7,025.4,008.8,0000.0,0003.62,0013.40,0001.80
2024-04-12 20:55:00,SystemResetWarning,0827.9,5.01,000.00,024.7,022.1,000.0,033.6,025.5,008.9,0000.0,0003.64,0016.02,0001.80
2024-04-12 20:56:00,SystemResetWarning,0828.0,4.99,000.00,024.7,022.5,000.0,033.4,025.8,009.3,0000.0,0003.68,0018.57,0001.81
2024-04-12 20:57:00,SystemResetWarning,0828.1,5.00,000.00,024.7,022.9,000.0,033.3,026.2,009.3,0000.0,0003.68,0018.69,0001.82
2024-04-12 20:58:00,SystemResetWarning,0828.1,5.01,000.00,024.8,023.3,000.0,033.3,026.4,009.0,0000.0,0003.70,0017.82,0001.85
2024-04-12 20:59:00,SystemResetWarning,0828.1,5.00,000.00,024.9,023.6,000.0,033.3,026.6,008.6,0000.0,0003.68,0017.47,0001.85
